Home   Weather   Zaandam   Past weeks

Flag for Netherlands Past Weather in Zaandam, Netherlands — Yesterday and Last 2 Weeks

Now
50 °F

Passing clouds.


Feels Like: 44 °F
Forecast: 47 / 51 °F
Wind: 17 mph from Southwest

Location: Amsterdam Schiphol Airport

Current Time: Dec 10, 2016 at 11:20:10 pm

Latest Report: Dec 10, 2016 at 10:55 pm


Visibility: 3 mi

Pressure: 29.98 "Hg

Humidity: 94%

Dew Point: 48 °F

Location of ZaandamLocation

Past Weather in Zaandam — Graph

°F

Zaandam Temperature Yesterday

Maximum temperature yesterday: 52 °F (at 12:25 am)
Minimum temperature yesterday: 45 °F (at 10:55 pm)
Average temperature yesterday: 49 °F

High & Low Weather Summary for the Past Weeks

 TemperatureHumidityPressure
High52 °F (Dec 8, 10:55 pm)100% (Nov 26, 6:25 am)30.60 "Hg (Nov 26, 6:25 am)
Low23 °F (Nov 29, 8:55 am)53% (Nov 28, 12:55 pm)30.04 "Hg (Dec 10, 9:25 pm)
Average39 °F86%30.31 "Hg
* Reported Nov 25 9:25 pm — Dec 10 9:55 pm, Zaandam, Weather by CustomWeather, © 2016

Note: Actual official high and low records may vary slightly from our data, if they occured in-between our weather recording intervals... More about our weather records

Advertising

Zaandam Weather History for the Previous 24 Hours

Scroll right to see more
 ConditionsComfort  
Time TempWeatherWind HumidityBarometerVisibility
9:55 pm
Sat, Dec 10
48 °FDrizzle. Fog.13 mph100%30.04 "Hg2 mi
9:25 pm48 °FDrizzle. Fog.12 mph100%30.04 "Hg1 mi
8:55 pm48 °FDrizzle. Fog.12 mph94%30.07 "Hg1 mi
8:25 pm48 °FPassing clouds.10 mph94%30.07 "Hg1 mi
7:55 pm46 °FPassing clouds.9 mph100%30.09 "Hg1 mi
7:25 pm46 °FPassing clouds.10 mph100%30.09 "Hg1 mi
6:25 pm48 °FPartly cloudy.9 mph94%30.12 "Hg1 mi
5:55 pm48 °FPartly cloudy.10 mph94%30.12 "Hg1 mi
5:25 pm48 °FDrizzle. Fog.8 mph100%30.15 "Hg1 mi
4:55 pm48 °FDrizzle. Fog.7 mph100%30.15 "Hg1 mi
4:25 pm48 °FDrizzle. Fog.8 mph100%30.15 "Hg1 mi
3:55 pm48 °FDrizzle. Fog.8 mph100%30.15 "Hg2 mi
3:25 pm48 °FDrizzle. Fog.10 mph100%30.15 "Hg1 mi
2:55 pm48 °FDrizzle. Fog.10 mph100%30.15 "Hg1 mi
2:25 pm48 °FDrizzle. Mostly cloudy.9 mph100%30.15 "Hg1 mi
1:55 pm48 °FDrizzle. Mostly cloudy.9 mph94%30.15 "Hg1 mi
1:25 pm48 °FFog.8 mph94%30.18 "Hg1 mi
12:55 pm48 °FCool.9 mph94%30.18 "Hg1 mi
12:25 pm48 °FCool.8 mph94%30.18 "Hg1 mi
11:55 am48 °FFog.8 mph94%30.18 "Hg2 mi
11:25 am46 °FFog.9 mph100%30.18 "Hg2 mi
10:55 am46 °FFog.10 mph93%30.18 "Hg2 mi
10:25 am46 °FFog.10 mph93%30.18 "Hg3 mi
9:55 am46 °FLow clouds.12 mph93%30.18 "Hg4 mi
9:25 am46 °FMostly cloudy.10 mph87%30.18 "Hg4 mi
8:55 am45 °FPartly sunny.12 mph93%30.18 "Hg4 mi
8:25 am45 °FPassing clouds.10 mph93%30.15 "Hg5 mi
7:55 am45 °FMostly cloudy.9 mph93%30.18 "Hg6 mi
7:25 am45 °FPartly cloudy.8 mph93%30.15 "Hg6 mi
6:55 am45 °FPassing clouds.7 mph87%30.15 "HgN/A
6:25 am43 °FPassing clouds.8 mph93%30.15 "HgN/A
5:55 am45 °FPassing clouds.8 mph87%30.15 "HgN/A
5:25 am45 °FPassing clouds.10 mph87%30.18 "HgN/A
4:55 am45 °FClear.12 mph87%30.15 "Hg6 mi
4:25 am43 °FClear.13 mph93%30.18 "Hg6 mi
3:55 am43 °FClear.10 mph93%30.18 "Hg6 mi
3:25 am45 °FClear.12 mph93%30.21 "Hg6 mi
2:55 am43 °FClear.10 mph100%30.18 "Hg5 mi
2:25 am45 °FClear.10 mph93%30.21 "Hg4 mi
1:55 am45 °FClear.10 mph93%30.21 "Hg4 mi
1:25 am45 °FClear.12 mph93%30.21 "Hg4 mi
12:55 am45 °FClear.12 mph93%30.21 "Hg4 mi
12:25 am45 °FClear.9 mph93%30.24 "Hg4 mi
11:55 pm
Fri, Dec 9
45 °FClear.9 mph93%30.24 "Hg5 mi
Weather by CustomWeather, © 2016

See weather overviewHow to use our weather pages